TimeAKST,TemperatureF,Dew PointF,Humidity,Sea Level PressureIn,VisibilityMPH,Wind Direction,Wind SpeedMPH,Gust SpeedMPH,PrecipitationIn,Events,Conditions,WindDirDegrees,DateUTC
12:53 AM,45.0,42.1,90,29.89,10.0,South,9.2,20.7,0.02,Rain,Light Rain,180,2013-01-17 09:53:00
1:53 AM,46.0,43.0,89,29.82,4.0,SSE,8.1,17.3,0.08,Rain,Rain,160,2013-01-17 10:53:00
3:02 AM,46.4,44.6,93,29.80,3.0,Variable,6.9,-,0.04,Rain,Heavy Rain,0,2013-01-17 12:02:00
3:53 AM,45.0,41.0,86,29.80,4.0,SSW,9.2,27.6,0.20,Rain,Rain,200,2013-01-17 12:53:00
4:53 AM,43.0,39.9,89,29.77,4.0,South,9.2,19.6,0.03,Rain,Light Rain,190,2013-01-17 13:53:00
5:53 AM,44.1,41.0,89,29.75,4.0,South,9.2,19.6,0.08,Rain,Rain,180,2013-01-17 14:53:00
6:39 AM,44.6,42.8,93,29.74,4.0,SSW,13.8,23.0,0.05,,Overcast,200,2013-01-17 15:39:00
6:53 AM,44.1,42.1,93,29.75,6.0,SSW,12.7,24.2,0.06,Rain,Light Rain,200,2013-01-17 15:53:00
7:07 AM,44.6,42.8,93,29.75,7.0,SSW,11.5,21.9,0.00,Rain,Light Rain,200,2013-01-17 16:07:00
7:45 AM,42.8,42.8,100,29.78,5.0,SSW,10.4,25.3,0.00,Rain,Light Rain,210,2013-01-17 16:45:00
7:53 AM,44.1,42.1,93,29.78,5.0,SSW,10.4,23.0,0.00,Rain,Light Rain,200,2013-01-17 16:53:00
8:53 AM,43.0,41.0,93,29.80,9.0,SSW,10.4,-,0.01,,Overcast,200,2013-01-17 17:53:00
9:37 AM,44.6,41.0,87,29.81,10.0,SSW,8.1,16.1,N/A,,Overcast,200,2013-01-17 18:37:00
9:53 AM,44.1,41.0,89,29.82,10.0,SSW,9.2,-,N/A,,Overcast,200,2013-01-17 18:53:00
10:04 AM,42.8,41.0,93,29.82,7.0,SSW,11.5,18.4,0.00,Rain,Light Rain,200,2013-01-17 19:04:00
10:23 AM,44.6,41.0,87,29.82,10.0,SSW,9.2,-,0.00,,Overcast,200,2013-01-17 19:23:00
10:53 AM,43.0,41.0,93,29.83,2.5,SSW,9.2,-,0.00,Rain,Light Rain,200,2013-01-17 19:53:00
11:09 AM,42.8,42.8,100,29.83,2.0,SSW,6.9,-,0.01,Rain,Light Rain,210,2013-01-17 20:09:00
11:25 AM,42.8,41.0,93,29.83,6.0,SSW,8.1,-,0.01,,Overcast,200,2013-01-17 20:25:00
11:53 AM,43.0,41.0,93,29.84,10.0,South,8.1,16.1,0.01,,Overcast,190,2013-01-17 20:53:00
12:13 PM,42.8,41.0,93,29.84,9.0,SSW,10.4,-,N/A,,Overcast,200,2013-01-17 21:13:00
12:27 PM,42.8,41.0,93,29.84,2.0,SSW,8.1,-,0.00,Rain,Light Rain,200,2013-01-17 21:27:00
12:37 PM,42.8,41.0,93,29.84,7.0,SSW,6.9,-,0.00,,Overcast,200,2013-01-17 21:37:00
12:53 PM,43.0,41.0,93,29.84,10.0,SSW,6.9,-,0.00,,Overcast,200,2013-01-17 21:53:00
1:21 PM,42.8,41.0,93,29.84,7.0,SSW,8.1,-,N/A,,Overcast,200,2013-01-17 22:21:00
1:29 PM,42.8,41.0,93,29.84,4.0,South,9.2,18.4,0.00,Rain,Light Rain,180,2013-01-17 22:29:00
1:53 PM,43.0,41.0,93,29.84,5.0,SSW,8.1,16.1,0.01,Rain,Light Rain,210,2013-01-17 22:53:00
2:18 PM,42.8,41.0,93,29.83,3.0,SSW,10.4,16.1,0.00,Rain,Light Rain,200,2013-01-17 23:18:00
2:38 PM,42.8,41.0,93,29.84,2.0,SSW,9.2,17.3,0.00,Rain,Light Rain,200,2013-01-17 23:38:00
2:53 PM,43.0,41.0,93,29.84,10.0,SSW,9.2,19.6,0.00,,Overcast,200,2013-01-17 23:53:00
3:06 PM,42.8,41.0,93,29.84,3.0,SSW,10.4,18.4,0.00,Rain,Light Rain,210,2013-01-18 00:06:00
3:11 PM,42.8,41.0,93,29.84,3.0,SSW,10.4,18.4,0.00,Rain,Light Rain,210,2013-01-18 00:11:00
3:35 PM,42.8,41.0,93,29.84,10.0,SSW,9.2,18.4,0.01,Rain,Light Rain,210,2013-01-18 00:35:00
3:53 PM,42.1,41.0,96,29.84,6.0,SSW,9.2,-,0.01,Rain,Light Rain,210,2013-01-18 00:53:00
3:55 PM,42.8,41.0,93,29.84,4.0,SSW,10.4,-,0.00,Rain,Light Rain,210,2013-01-18 00:55:00
4:00 PM,42.8,41.0,93,29.84,2.5,SSW,10.4,-,0.00,Rain,Light Rain,210,2013-01-18 01:00:00
4:07 PM,42.8,41.0,93,29.83,5.0,SSW,9.2,-,0.01,Rain,Light Rain,200,2013-01-18 01:07:00
4:18 PM,42.8,39.2,87,29.84,10.0,SSW,10.4,18.4,0.01,Rain,Light Rain,210,2013-01-18 01:18:00
4:53 PM,42.1,39.9,92,29.85,6.0,South,8.1,19.6,0.05,Rain,Light Rain,190,2013-01-18 01:53:00
5:13 PM,42.8,39.2,87,29.85,6.0,SSW,6.9,-,0.03,Rain,Light Rain,200,2013-01-18 02:13:00
5:49 PM,42.8,39.2,87,29.86,6.0,SSW,9.2,-,0.06,Rain,Rain,200,2013-01-18 02:49:00
5:53 PM,42.1,39.9,92,29.86,7.0,SSW,8.1,-,0.06,Rain,Light Rain,200,2013-01-18 02:53:00
6:02 PM,42.8,39.2,87,29.86,10.0,SSW,8.1,-,0.00,Rain,Light Rain,200,2013-01-18 03:02:00
6:24 PM,42.8,39.2,87,29.86,6.0,SSW,5.8,-,0.01,Rain,Light Rain,200,2013-01-18 03:24:00
6:53 PM,41.0,39.9,96,29.87,10.0,SSW,5.8,-,0.01,,Overcast,200,2013-01-18 03:53:00
7:30 PM,41.0,39.2,93,29.88,10.0,SSW,5.8,-,0.02,,Overcast,200,2013-01-18 04:30:00
7:53 PM,41.0,39.9,96,29.89,10.0,SSW,6.9,-,0.02,,Overcast,200,2013-01-18 04:53:00
8:06 PM,41.0,39.2,93,29.89,10.0,SSW,5.8,-,N/A,,Overcast,210,2013-01-18 05:06:00
8:26 PM,41.0,39.2,93,29.90,2.5,WSW,6.9,-,0.00,Rain,Light Rain,240,2013-01-18 05:26:00
8:35 PM,41.0,39.2,93,29.90,2.0,WSW,4.6,-,0.01,Rain,Light Rain,240,2013-01-18 05:35:00
8:53 PM,39.9,39.0,97,29.92,10.0,SSW,5.8,-,0.01,,Overcast,210,2013-01-18 05:53:00
9:11 PM,39.2,39.2,100,29.92,2.0,SW,5.8,-,0.02,Rain,Light Rain,230,2013-01-18 06:11:00
9:23 PM,39.2,39.2,100,29.93,3.0,West,10.4,16.1,0.03,Rain,Light Rain,260,2013-01-18 06:23:00
9:53 PM,39.9,39.0,97,29.95,5.0,Variable,3.5,-,0.04,Rain,Light Rain,0,2013-01-18 06:53:00
10:32 PM,39.2,37.4,93,29.96,10.0,SSW,3.5,-,0.02,Rain,Light Rain,210,2013-01-18 07:32:00
10:53 PM,39.0,37.9,96,29.97,10.0,Calm,Calm,-,0.02,Rain,Light Rain,0,2013-01-18 07:53:00
11:53 PM,37.9,36.0,93,29.99,10.0,Calm,Calm,-,N/A,,Overcast,0,2013-01-18 08:53:00